Other Public Products
Issued by NWS Charleston, SC

Current Version | Previous Version | Graphics & Text | Print | Product List | Glossary On
Versions: 1 2 3 4 5 6 7 8 9 10 11 12 13 14 15 16 17 18 19 20 21 22 23 24 25 26 27 28 29 30 31 32 33 34 35 36 37 38 39 40 41 42 43 44 45 46 47 48 49 50
000 FPUS82 KCHS 230612 OPUCHS TEST...KCHS/KSAV Gateway Observations...TEST National Weather Service Charleston SC 100 AM EST TUE JAN 23 2018 NOTE: "fair" indicates few or no clouds below 12,000 feet with no significant weather and/or obstructions to visibility. SCZ050-WAZ558-NCZ071-TXZ119-213-PAZ071-DCZ001-FLZ074-172-MI076- NYZ176-178-MAZ016-IL014-TNZ027-NJZ106-GAZ044-MD014-230700- ...Gateway Observations for Charleston International... CITY SKY/WX TMP DP RH WIND PRES REMARKS Chas Airport MOCLDY 68 63 84 S14 29.97F 6HR MIN TEMP: 60; 6HR MAX TEMP: 68; Seattle CLOUDY 41 35 79 SE8 30.26F 6HR MIN TEMP: 40; 6HR MAX TEMP: 47; Charlotte HVY RAIN 62 61 96 S21G32 29.84F FOG 6HR MIN TEMP: 56; 6HR MAX TEMP: 63; 6HR PCP: 0.07; Dallas DFW CLEAR 49 20 31 W12 30.13R 6HR MIN TEMP: 47; 6HR MAX TEMP: 57; Dallas Love CLEAR 41 26 55 CALM 30.15R 6HR MIN TEMP: 41; 6HR MAX TEMP: 57; Philladelphia FAIR 51 40 65 S9 29.96F 6HR MIN TEMP: 46; 6HR MAX TEMP: 53; Wash National CLOUDY 52 44 74 S8 29.90F 6HR MIN TEMP: 50; 6HR MAX TEMP: 58; Baltimore CLOUDY 48 42 80 VRB3 29.91F 6HR MIN TEMP: 47; 6HR MAX TEMP: 53; Miami MOCLDY 75 70 84 E10 30.05F 6HR MIN TEMP: 71; 6HR MAX TEMP: 76; Detroit TSTM 47 45 93 SW26G35 29.51R FOG 6HR MIN TEMP: 43; 6HR MAX TEMP: 50; 6HR PCP: 0.01; Newark FOG 40 39 97 NE5 30.01F VSB 3/4 WCI 37 6HR MIN TEMP: 39; 6HR MAX TEMP: 41; Laguardia FOG 36 35 96 NE8 30.03F VSB 1/8 WCI 30 6HR MIN TEMP: 36; 6HR MAX TEMP: 39; J F K FOG 40 40 100 NE7 30.03F VSB 1/4 WCI 35 6HR MIN TEMP: 40; 6HR MAX TEMP: 43; Boston Logan DRIZZLE 39 38 96 N7 30.13F FOG WCI 34 6HR MIN TEMP: 38; 6HR MAX TEMP: 39; 6HR PCP: 0.01; Ft. Lauderdale MOCLDY 74 71 91 SE12 30.05F 6HR MIN TEMP: 74; 6HR MAX TEMP: 74; Chicago O`Hare CLOUDY 39 31 72 SW13 29.50R WCI 31 6HR MIN TEMP: 39; 6HR MAX TEMP: 49; 6HR PCP: 0.01; Chicago Midway FAIR 37 32 82 SW8 29.51S WCI 31 6HR MIN TEMP: 37; 6HR MAX TEMP: 52; 6HR PCP: 0.02; Houston Bush CLOUDY 43 35 73 CALM 30.16S 6HR MIN TEMP: 43; 6HR MAX TEMP: 59; Houston Hobby FAIR 49 32 52 W6 30.16S 6HR MIN TEMP: 45; 6HR MAX TEMP: 61; Nashville FAIR 51 28 41 W14G24 29.79R 6HR MIN TEMP: 51; 6HR MAX TEMP: 63; Atlanta CLOUDY 62 61 96 SW12 29.86F 6HR MIN TEMP: 60; 6HR MAX TEMP: 62; 6HR PCP: 0.64; $$ GAZ044-118-TXZ119-213-NCZ071-DCZ001-MDZ014-506-PAZ021-071-NJZ106- NYZ176-178-MAZ106-OHZ011-021-055-MIZ076-KYZ091-ILZ014-INZ047- MNZ060-ONZ431-230700- ...Gateway Observations for Savannah International... CITY SKY/WX TMP DP RH WIND PRES REMARKS Savannah Arpt CLOUDY 66 63 90 S12 29.98F 6HR MIN TEMP: 62; 6HR MAX TEMP: 66; Atlanta CLOUDY 62 61 96 SW12 29.86F 6HR MIN TEMP: 60; 6HR MAX TEMP: 62; 6HR PCP: 0.64; Charlotte HVY RAIN 62 61 96 S21G32 29.84F FOG 6HR MIN TEMP: 56; 6HR MAX TEMP: 63; 6HR PCP: 0.07; Dallas DFW CLEAR 49 20 31 W12 30.13R 6HR MIN TEMP: 47; 6HR MAX TEMP: 57; Houston Bush CLOUDY 43 35 73 CALM 30.16S 6HR MIN TEMP: 43; 6HR MAX TEMP: 59; Wash National CLOUDY 52 44 74 S8 29.90F 6HR MIN TEMP: 50; 6HR MAX TEMP: 58; Wash Dulles CLOUDY 55 44 66 S8 29.87F 6HR MIN TEMP: 54; 6HR MAX TEMP: 60; Baltimore CLOUDY 48 42 80 VRB3 29.91F 6HR MIN TEMP: 47; 6HR MAX TEMP: 53; Philadelphia FAIR 51 40 65 S9 29.96F 6HR MIN TEMP: 46; 6HR MAX TEMP: 53; Newark FOG 40 39 97 NE5 30.01F VSB 3/4 WCI 37 6HR MIN TEMP: 39; 6HR MAX TEMP: 41; Laguardia FOG 36 35 96 NE8 30.03F VSB 1/8 WCI 30 6HR MIN TEMP: 36; 6HR MAX TEMP: 39; J F K FOG 40 40 100 NE7 30.03F VSB 1/4 WCI 35 6HR MIN TEMP: 40; 6HR MAX TEMP: 43; Boston DRIZZLE 39 38 96 N7 30.13F FOG WCI 34 6HR MIN TEMP: 38; 6HR MAX TEMP: 39; 6HR PCP: 0.01; Pittsburg FAIR 53 43 68 SE8 29.60F 6HR MIN TEMP: 53; 6HR MAX TEMP: 59; 6HR PCP: TRACE; Akron TSTM 51 46 83 S10G22 29.56S 6HR MIN TEMP: 51; 6HR MAX TEMP: 55; 6HR PCP: 0.10; Cleveland LGT RAIN 48 44 86 SW9 29.62R 6HR MIN TEMP: 48; 6HR MAX TEMP: 57; 6HR PCP: 0.11; Cincinnati FAIR 46 34 62 SW12 29.63S 6HR MIN TEMP: 46; 6HR MAX TEMP: 57; 6HR PCP: 0.03; Columbus CLOUDY 48 47 96 W8 29.59F Detroit TSTM 47 45 93 SW26G35 29.51R FOG 6HR MIN TEMP: 43; 6HR MAX TEMP: 50; 6HR PCP: 0.01; Chicago O`Hare CLOUDY 39 31 72 SW13 29.50R WCI 31 6HR MIN TEMP: 39; 6HR MAX TEMP: 49; 6HR PCP: 0.01; Minneapolis FLURRIES 26 22 84 N10 29.82R WCI 16 6HR MIN TEMP: 26; 6HR MAX TEMP: 27; 6HR PCP: 0.51; Indianapolis CLOUDY 40 35 83 SW8 29.60F WCI 34 6HR MIN TEMP: 37; 6HR MAX TEMP: 52; 6HR PCP: 0.03; Toronto Canada LGT RAIN 36 34 93 E5 29.58F WCI 32 $$

USA.gov is the U.S. government's official web portal to all federal, state and local government web resources and services.